{"data":{"norad_id":42946,"epoch":"2026-05-25T05:07:34.990752Z","epoch_age_seconds":46693,"freshness":"FRESH","line1":"1 42946U 17058B   26145.21359943  .00001864  00000+0  13902-3 0  9996","line2":"2 42946  34.9959 170.1839 0001592 128.3431 231.7420 15.02690485472400","mean_motion":15.02690485,"eccentricity":0.0001592,"inclination_deg":34.9959,"raan_deg":170.1839,"arg_perigee_deg":128.3431,"mean_anomaly_deg":231.742,"bstar":0.00013902,"rev_number":47240,"period_min":95.828117258625,"perigee_km":557.49973958237,"apogee_km":559.70839793866,"semimajor_km":6936.7410687605,"source":"CELESTRAK","updated_at":"2026-05-25T13:37:55.721861Z"}}